User: anonymous   Login
Location: Cimarron National Grasslands
(37.1250°N, 101.7500°W)
Time: 08:42:41
(UTC-06:00)
Language:

Ariane Rocket - Orbit

View from above orbital plane
View from above orbital plane
View from above satellite
View from above satellite

Ground track
Ground track

The orbit data is extracted from the following two-line orbital elements,

1 23561U 95021B   15032.03974249  .00000369  00000-0  13851-3 0  9756
2 23561 098.7146 005.7510 0006069 311.8208 095.0259 14.37479804 36653
Epoch (UTC): 01 February 2015 00:57:13
Eccentricity: 0.0006069
inclination: 98.7146°
perigee height: 762 km
apogee height: 771 km
right ascension of ascending node: 5.7510°
argument of perigee: 311.8208°
revolutions per day: 14.37479804
mean anomaly at epoch: 95.0259°
orbit number at epoch: 3665

The dashed part of the orbit path shows where the satellite is in the earth's shadow,  

DLR